Temperature
19 19 18 18 18 18 17 17 17 17 16 16 16 15 15 15 15 15 15 15 14 14 14 14 14 14 14 14 14 14 14 14 15 16 16 16 16 16 16 15 15 15 15
19 19 19 18 18 18 18 17 17 17 16 16 15 15 15 15 15 15 15 14 14 14 14 14 14 14 14 14 14 14 14 14 14 15 16 16 16 16 16 15 15 15 15
19 19 18 18 18 18 17 17 17 17 16 16 15 15 15 15 15 15 15 14 14 14 13 13 13 13 13 13 13 13 14 14 14 14 15 15 15 16 15 15 15 15 15
19 19 18 18 18 18 17 17 17 17 16 16 15 15 15 15 15 15 15 15 14 14 14 13 13 13 13 13 13 13 13 13 13 14 14 14 15 15 15 15 14 14 14
18 18 18 17 17 17 17 17 17 17 16 16 15 15 15 15 15 15 15 15 14 14 14 13 13 13 13 12 12 12 12 13 13 13 13 14 14 14 14 14 14 14 14
18 18 17 17 17 17 17 17 16 16 16 16 16 15 15 15 15 14 15 15 14 14 14 13 13 13 13 12 12 12 12 12 12 12 13 13 13 14 14 14 14 13 13
17 17 17 16 16 16 16 16 16 16 16 15 16 15 15 15 14 14 14 14 14 14 14 14 13 13 13 13 13 12 12 12 12 12 12 13 13 13 13 14 14 14 14
16 15 15 15 16 16 16 16 15 15 15 15 15 15 15 15 15 14 14 14 14 14 14 14 14 13 13 13 13 13 12 12 12 12 12 13 13 13 13 13 14 14 14
14 14 14 14 14 14 14 15 14 14 14 14 14 14 14 15 14 14 14 14 14 14 14 14 14 14 14 13 13 13 13 12 12 12 13 13 13 13 13 13 13 13 14
13 12 12 13 13 13 14 14 13 13 13 13 13 14 14 14 14 14 14 14 14 14 14 14 14 14 14 14 13 13 13 13 13 13 13 13 13 13 13 13 13 13 13
12 12 12 12 12 12 12 12 12 12 12 12 12 13 13 13 13 13 13 13 13 13 13 13 13 13 14 14 14 14 13 13 13 13 13 13 13 13 13 13 13 13 13
12 12 12 11 11 11 11 11 11 12 12 12 12 12 12 12 12 12 13 13 13 13 13 13 13 13 13 14 14 13 13 13 13 13 13 13 13 13 13 12 12 12 12
13 12 12 11 11 11 11 11 11 11 12 12 12 12 12 12 12 12 12 12 12 12 12 13 13 13 13 13 13 13 13 13 13 12 12 12 12 12 12 12 11 11 11
13 12 12 12 11 11 11 11 11 11 11 11 11 11 11 11 11 11 11 12 12 12 12 12 12 12 13 13 13 13 12 12 12 12 12 12 12 11 11 11 11 11 11
13 12 12 12 11 11 11 11 11 11 11 10 10 11 11 11 11 11 11 11 11 11 12 12 12 12 12 12 12 12 12 12 12 11 11 11 11 11 11 10 10 10 10
13 12 12 12 11 11 11 11 11 10 10 10 10 10 10 10 10 10 10 10 11 11 11 11 12 11 11 11 11 11 11 11 11 11 11 11 11 10 10 10 10 10 10
13 12 12 12 11 11 11 11 11 10 10 10 10 10 10 10 10 10 10 10 10 10 11 11 11 11 11 11 11 11 11 11 11 10 10 10 10 10 10 10 10 10 10
13 12 12 12 11 11 11 11 11 10 10 10 9 9 10 10 10 10 10 10 10 10 10 10 10 10 10 10 10 10 10 10 10 10 10 10 10 10 10 9 9 9 9
13 12 12 12 11 11 11 11 11 10 10 9 9 9 9 10 10 10 10 10 10 10 10 10 10 10 10 10 10 10 9 9 9 9 9 9 9 9 9 9 9 9 9
13 12 12 12 11 11 11 11 11 10 10 10 10 10 10 10 10 10 10 10 10 9 9 9 9 9 9 9 9 9 9 9 9 9 9 9 9 9 9 9 9 9 9
13 13 12 12 11 11 11 11 11 11 10 10 10 10 10 10 10 10 10 10 9 9 9 9 9 9 9 9 9 9 9 9 9 9 8 8 9 8 8 8 8 8 8
13 13 12 12 11 11 11 11 11 11 10 10 10 10 10 10 10 10 10 9 9 9 9 8 8 8 8 8 8 8 8 8 8 8 8 8 8 8 8 8 8 8 8
14 13 12 12 11 11 11 11 11 11 10 10 10 10 10 10 10 9 9 9 8 8 8 8 8 8 8 8 8 8 8 8 8 8 7 7 8 8 8 8 7 7 7
14 13 12 12 11 11 11 11 11 10 10 10 10 10 10 9 9 9 8 8 8 8 8 8 8 8 8 8 8 8 8 8 7 7 7 7 7 7 7 7 7 7 7
14 13 12 11 11 11 11 11 11 10 10 10 10 9 9 9 9 8 8 8 8 7 7 7 8 8 8 8 8 8 8 8 7 7 7 6 6 6 6 6 6 6 6
13 13 12 11 11 11 11 11 10 10 10 10 9 9 9 8 8 8 8 8 8 8 8 8 8 8 8 8 8 8 8 8 7 7 7 6 6 5 5 5 5 5 5
Wind_Speed
6 5 4 4 5 5 5 6 6 5 6 6 5 4 4 4 3 3 3 3 4 4 4 6 7 8 7 8 7 7 5 4 4 4 3 3 7 7 8 12 14 14 14
6 5 4 4 5 5 5 6 6 6 6 6 5 5 5 5 5 4 4 3 3 4 4 5 5 5 7 7 7 8 7 6 4 4 3 3 5 6 7 7 7 11 13
6 5 5 5 6 6 6 6 6 6 6 6 6 6 6 6 6 5 4 3 3 4 4 5 5 5 5 5 7 8 7 7 5 4 3 2 2 2 3 3 4 5 9
6 5 5 5 6 7 7 6 7 7 7 7 7 7 7 6 6 5 4 4 3 3 4 4 4 5 5 5 5 7 7 8 6 4 3 2 3 2 3 3 4 5 6
6 6 5 5 5 6 6 7 7 7 8 7 7 6 6 6 6 7 6 5 5 5 4 4 5 6 6 5 4 4 6 6 6 5 3 2 3 3 4 5 6 5 5
4 3 3 3 4 4 5 6 5 6 6 6 7 7 7 7 9 12 9 7 6 6 6 6 6 7 9 10 8 8 6 5 5 4 3 3 4 5 4 5 5 4 5
10 8 5 3 3 3 2 0 2 4 4 5 6 7 7 9 12 13 15 8 7 7 7 6 6 7 10 7 10 11 11 10 8 5 4 5 5 6 6 6 8 8 8
10 9 9 8 8 7 6 5 3 2 2 4 5 6 7 9 12 13 14 9 7 7 7 7 7 8 7 9 8 7 8 9 10 8 7 8 9 7 7 8 9 8 4
8 8 7 7 7 7 7 6 4 3 2 2 3 4 6 7 9 11 10 5 6 6 6 6 7 7 10 11 9 8 7 7 10 13 14 12 13 13 9 5 5 5 6
6 6 6 6 6 6 6 5 4 4 4 4 3 2 3 4 5 8 10 5 5 4 4 4 5 7 10 11 10 8 8 7 5 5 6 7 5 4 5 6 6 6 4
4 5 6 6 6 6 6 5 5 5 5 6 5 5 4 4 4 4 6 5 5 4 3 3 4 7 8 10 11 9 9 6 4 4 3 2 1 1 1 1 4 5 5
4 5 5 6 6 6 7 7 6 6 7 7 6 6 6 6 7 7 4 3 5 4 4 3 4 5 3 5 7 7 8 7 4 4 3 2 1 1 1 1 0 1 2
4 4 4 5 6 6 6 6 6 6 5 5 5 5 5 6 7 11 9 4 1 3 3 5 5 5 5 5 6 8 7 5 4 3 2 2 1 1 1 1 1 2 2
3 2 1 2 3 4 5 5 5 5 5 5 6 6 5 5 5 6 6 5 3 1 1 2 5 7 6 6 6 5 4 3 4 3 3 2 1 1 1 1 1 0 0
2 1 0 0 1 2 3 4 4 4 4 4 4 5 5 6 7 9 5 3 2 1 2 3 3 3 3 3 3 3 3 3 3 2 2 1 1 1 1 1 2 2 1
2 2 2 2 2 1 0 1 4 3 5 6 6 5 4 6 9 8 6 4 3 2 3 3 3 3 3 3 3 3 2 2 2 2 2 2 2 2 2 2 2 2 2
4 3 2 1 2 2 2 2 2 2 3 4 6 7 7 8 8 8 7 6 7 5 5 4 4 4 4 3 3 2 1 0 1 1 1 2 2 2 2 2 2 2 3
4 3 2 1 1 1 1 0 0 0 1 2 4 6 8 9 9 8 6 6 6 6 5 6 5 5 4 4 3 3 2 3 2 2 1 1 1 1 1 2 2 3 3
5 3 1 0 1 1 1 2 2 2 2 2 3 5 8 7 10 11 8 5 5 5 5 5 5 5 4 4 3 3 3 3 3 3 2 2 2 1 2 3 3 5 4
5 6 4 1 2 2 2 2 2 3 3 3 3 4 4 5 6 7 6 5 5 5 5 5 4 5 4 4 4 4 4 4 4 3 3 3 3 2 3 4 4 4 4
5 4 4 3 2 2 2 3 3 3 3 3 3 4 4 4 5 5 5 5 5 4 4 5 4 4 4 4 4 4 4 3 3 3 3 3 4 3 3 3 4 4 4
5 4 3 3 3 3 3 3 3 3 3 3 3 3 6 5 5 5 5 5 5 5 5 5 5 5 5 5 4 4 4 4 4 4 4 4 4 4 4 4 4 4 4
6 5 4 3 3 4 4 3 4 4 3 3 3 3 4 4 5 5 5 5 5 5 5 5 5 5 5 6 5 4 4 4 4 5 5 4 4 4 4 4 4 4 3
6 6 5 4 4 4 4 4 4 4 4 3 3 3 3 4 4 4 4 4 5 5 5 5 5 6 6 6 6 5 5 6 6 5 5 4 4 4 4 4 4 4 3
6 6 5 5 5 5 4 4 4 4 4 3 3 3 3 3 3 3 4 4 5 6 6 6 6 6 7 7 8 8 9 9 7 6 5 3 4 4 4 4 4 4 4
6 6 5 5 5 5 5 5 4 4 4 4 3 4 3 3 3 3 4 4 5 5 4 5 7 8 9 8 9 10 10 10 10 10 7 4 5 5 5 4 5 5 5
Wind_Direction
189 190 181 174 166 161 168 180 182 182 179 183 191 201 203 198 185 174 179 177 195 212 213 213 220 213 209 203 188 183 187 181 224 256 226 201 177 180 178 190 199 201 202
177 160 160 155 160 170 188 195 192 192 191 192 192 194 201 206 204 199 202 196 207 223 223 218 223 217 212 202 194 194 194 185 192 227 225 197 193 191 176 179 193 202 201
167 160 170 182 186 193 204 205 202 201 201 202 199 202 204 207 209 211 211 217 223 227 222 217 215 201 205 202 201 197 194 188 175 190 214 212 193 158 158 185 192 202 207
164 166 193 213 213 210 212 213 212 208 204 205 210 211 208 205 206 208 208 216 224 226 220 215 210 202 199 195 197 191 184 178 171 171 181 200 198 157 153 181 204 215 215
168 180 205 232 241 236 228 223 221 216 214 209 212 218 212 203 208 204 203 209 214 221 221 216 213 210 201 193 186 182 181 175 166 162 165 177 187 171 197 195 212 209 223
138 179 217 243 254 253 237 223 219 224 229 219 216 216 212 215 217 208 200 204 208 216 225 228 228 234 232 223 210 196 186 175 167 158 162 190 209 215 210 201 200 191 235
54 48 36 29 22 3 352 206 227 236 237 234 227 215 214 223 227 220 211 203 208 216 221 224 234 234 231 227 228 219 209 202 192 175 193 215 225 224 216 213 206 210 221
57 53 49 49 44 34 35 28 4 322 257 241 234 224 222 231 232 231 218 205 213 221 221 222 232 245 227 212 210 213 215 212 211 215 222 232 238 238 225 223 221 224 231
48 43 39 44 42 33 24 10 359 351 334 290 256 230 226 243 241 235 213 190 215 232 236 234 232 242 246 218 199 211 221 227 226 225 228 239 246 248 236 218 205 200 228
40 40 37 39 37 24 7 355 349 347 339 335 334 299 253 257 265 242 206 187 214 238 255 266 263 255 251 222 198 199 214 225 211 202 216 230 241 266 249 215 207 205 210
39 46 35 25 22 18 7 3 1 7 16 20 24 20 18 3 345 310 216 183 204 224 245 267 283 287 262 223 194 196 208 196 176 165 150 142 106 20 350 240 211 207 210
53 53 38 24 23 26 28 24 23 28 33 24 22 18 14 11 14 10 13 203 189 197 225 242 262 262 228 187 179 185 173 149 130 125 120 111 77 16 8 25 98 175 198
62 54 47 37 34 34 41 36 29 27 29 20 19 15 2 2 6 13 12 9 222 211 240 254 237 169 128 115 127 134 129 127 131 129 136 145 145 128 101 73 51 56 75
87 79 64 57 45 38 37 34 37 25 20 17 14 3 350 348 355 353 348 345 350 347 354 76 113 113 101 102 101 98 101 129 133 137 144 145 132 128 156 171 158 83 2
126 173 243 334 59 44 44 34 27 29 18 8 356 345 343 341 337 332 321 312 303 249 132 111 109 119 114 102 95 93 92 100 107 117 130 144 179 208 229 212 198 190 211
158 219 259 293 306 295 294 17 33 22 16 16 8 357 340 341 343 354 354 339 323 162 128 126 132 127 124 125 123 109 102 120 143 155 168 186 207 224 237 222 212 222 250
165 188 222 271 304 302 273 264 291 335 342 5 12 12 10 1 6 17 28 32 39 76 90 90 93 100 99 102 105 102 95 119 165 171 199 224 232 234 232 237 240 251 264
160 177 183 228 302 316 320 354 115 154 360 341 338 345 356 4 18 32 45 52 53 56 69 77 78 77 77 77 74 69 53 42 51 45 22 351 317 262 254 257 251 249 260
159 174 180 315 11 106 113 86 64 60 52 8 348 343 354 18 39 43 49 60 71 68 63 67 69 74 72 68 63 58 54 45 37 32 15 351 330 289 262 258 256 258 256
169 178 163 118 78 105 113 96 80 71 62 43 21 356 355 35 49 41 43 53 65 68 68 70 64 64 61 56 51 51 50 45 38 30 6 345 324 293 276 272 264 260 256
167 169 155 109 103 122 131 124 118 104 88 61 21 5 43 67 65 58 55 53 55 59 62 65 60 55 51 49 49 52 53 39 27 8 350 338 332 320 304 291 283 275 276
158 156 153 144 126 117 125 131 137 130 115 87 38 34 59 67 68 65 61 58 52 51 54 60 57 48 41 39 35 34 29 16 0 345 331 322 319 318 313 304 298 291 287
154 154 153 146 131 122 114 114 126 132 125 109 88 70 66 72 76 79 76 69 61 55 50 52 55 47 41 41 37 26 11 348 330 320 318 319 325 329 326 320 315 312 309
152 155 153 148 134 126 128 126 125 130 131 124 112 102 96 92 89 88 84 76 70 62 59 58 55 48 38 28 18 9 355 336 322 314 321 333 338 337 337 337 336 334 329
143 147 150 150 146 142 138 134 132 133 135 135 131 125 117 107 101 99 93 81 77 74 67 55 43 34 27 20 10 2 359 4 8 357 346 352 359 355 353 351 348 341 335
141 142 147 149 149 149 148 148 147 147 145 145 143 140 132 121 111 108 102 89 84 78 67 52 41 33 24 13 6 7 15 23 28 31 33 33 34 22 12 9 6 2 353
Height
1492 1493 1495 1496 1498 1499 1500 1500 1501 1501 1500 1500 1500 1500 1499 1499 1498 1498 1498 1498 1498 1500 1501 1502 1504 1507 1509 1512 1515 1517 1519 1522 1524 1526 1528 1530 1532 1533 1534 1535 1536 1537 1537
1492 1493 1495 1496 1498 1499 1500 1500 1500 1500 1499 1499 1499 1499 1499 1498 1498 1497 1496 1496 1496 1496 1497 1498 1499 1501 1503 1505 1508 1511 1513 1516 1519 1522 1524 1526 1528 1530 1531 1532 1533 1534 1535
1492 1493 1495 1496 1497 1497 1498 1499 1499 1498 1498 1498 1498 1498 1498 1498 1497 1497 1496 1495 1495 1495 1495 1495 1496 1497 1498 1500 1502 1505 1508 1511 1514 1517 1520 1522 1524 1526 1527 1528 1529 1530 1531
1490 1492 1493 1495 1495 1496 1497 1497 1497 1497 1497 1497 1497 1497 1497 1497 1497 1496 1496 1495 1495 1494 1494 1494 1494 1495 1496 1497 1498 1499 1502 1505 1508 1511 1515 1518 1519 1521 1522 1523 1524 1526 1527
1488 1490 1491 1492 1493 1494 1493 1494 1495 1495 1495 1495 1495 1495 1495 1496 1496 1496 1495 1495 1494 1494 1494 1494 1494 1493 1494 1495 1495 1496 1497 1499 1502 1505 1509 1512 1515 1516 1517 1519 1519 1521 1522
1486 1487 1488 1488 1489 1490 1490 1490 1491 1491 1492 1492 1493 1493 1493 1493 1494 1494 1494 1494 1494 1494 1493 1493 1493 1493 1493 1493 1494 1494 1495 1495 1497 1500 1504 1507 1510 1512 1514 1514 1515 1515 1516
1485 1485 1485 1486 1486 1486 1486 1486 1487 1487 1488 1488 1489 1489 1490 1490 1491 1491 1492 1492 1492 1492 1492 1492 1492 1492 1492 1492 1492 1492 1493 1494 1495 1497 1499 1502 1505 1507 1509 1509 1509 1509 1510
1485 1485 1484 1484 1483 1482 1482 1483 1483 1483 1483 1484 1484 1485 1486 1486 1487 1488 1488 1489 1489 1489 1490 1490 1490 1490 1490 1491 1491 1491 1491 1492 1492 1494 1496 1498 1501 1502 1503 1504 1505 1505 1505
1485 1484 1483 1482 1481 1480 1480 1479 1479 1479 1479 1479 1480 1480 1481 1482 1483 1483 1484 1485 1485 1486 1487 1487 1487 1487 1488 1488 1489 1489 1489 1490 1491 1492 1493 1495 1497 1498 1499 1499 1499 1500 1499
1487 1485 1484 1482 1480 1478 1477 1477 1476 1475 1475 1475 1475 1476 1476 1477 1478 1479 1480 1480 1481 1482 1483 1484 1484 1484 1485 1485 1486 1487 1487 1488 1489 1490 1491 1492 1493 1494 1494 1494 1495 1495 1495
1490 1488 1486 1483 1481 1479 1478 1477 1476 1475 1474 1474 1473 1473 1473 1473 1474 1475 1475 1476 1477 1477 1478 1480 1480 1481 1481 1482 1483 1484 1485 1486 1487 1488 1489 1490 1490 1490 1490 1490 1490 1491 1491
1493 1490 1488 1485 1483 1481 1480 1479 1478 1477 1476 1475 1474 1473 1472 1472 1472 1471 1472 1472 1472 1473 1474 1475 1476 1477 1478 1478 1479 1481 1482 1484 1485 1486 1486 1487 1487 1487 1487 1487 1487 1487 1487
1495 1492 1490 1487 1485 1484 1483 1482 1481 1480 1478 1476 1475 1474 1472 1472 1471 1470 1469 1469 1469 1469 1470 1471 1472 1473 1474 1475 1476 1478 1480 1481 1483 1484 1484 1485 1485 1485 1485 1485 1485 1485 1485
1496 1494 1492 1490 1488 1486 1485 1484 1483 1481 1480 1478 1476 1474 1473 1471 1470 1468 1467 1467 1467 1467 1467 1468 1469 1470 1472 1473 1475 1476 1478 1479 1481 1482 1482 1482 1483 1483 1483 1483 1483 1483 1482
1497 1496 1494 1492 1490 1489 1487 1486 1484 1482 1480 1479 1476 1474 1472 1470 1468 1467 1466 1465 1465 1465 1466 1467 1468 1469 1470 1472 1473 1475 1476 1478 1479 1479 1480 1480 1480 1480 1480 1480 1480 1480 1480
1498 1496 1495 1493 1491 1490 1488 1487 1485 1483 1481 1479 1477 1475 1472 1471 1468 1466 1465 1464 1464 1464 1465 1466 1467 1468 1470 1471 1473 1474 1475 1476 1477 1478 1478 1478 1478 1478 1478 1478 1478 1477 1476
1498 1497 1495 1493 1492 1491 1489 1487 1486 1484 1482 1480 1478 1476 1474 1472 1469 1467 1466 1465 1464 1465 1465 1466 1467 1468 1470 1471 1472 1474 1475 1475 1476 1476 1476 1476 1476 1476 1476 1475 1475 1474 1473
1498 1497 1495 1494 1493 1492 1490 1488 1486 1485 1483 1482 1480 1478 1477 1474 1472 1470 1468 1468 1467 1466 1467 1467 1468 1469 1470 1472 1473 1474 1474 1475 1475 1475 1475 1475 1475 1474 1474 1473 1472 1471 1471
1497 1496 1495 1494 1494 1492 1491 1490 1488 1486 1485 1483 1482 1480 1479 1477 1475 1474 1473 1472 1470 1470 1470 1470 1471 1472 1472 1473 1473 1474 1474 1474 1474 1474 1474 1473 1473 1472 1471 1470 1469 1468 1467
1497 1496 1495 1495 1494 1493 1492 1491 1490 1488 1486 1485 1484 1482 1481 1480 1479 1478 1477 1476 1475 1474 1474 1474 1474 1474 1474 1474 1474 1474 1473 1473 1473 1473 1472 1471 1470 1469 1468 1467 1466 1465 1463
1496 1496 1496 1495 1495 1494 1493 1492 1491 1490 1488 1487 1486 1485 1484 1483 1482 1481 1480 1479 1479 1478 1477 1477 1476 1476 1475 1474 1474 1474 1473 1472 1472 1471 1470 1469 1468 1466 1465 1464 1462 1461 1459
1495 1495 1495 1495 1495 1495 1494 1494 1493 1492 1491 1489 1489 1488 1487 1486 1485 1484 1483 1482 1481 1480 1479 1478 1477 1477 1476 1475 1474 1474 1473 1472 1470 1469 1468 1467 1465 1464 1462 1460 1459 1457 1456
1494 1494 1495 1495 1495 1495 1494 1494 1494 1493 1492 1491 1491 1490 1489 1488 1487 1485 1484 1483 1482 1481 1480 1479 1478 1477 1476 1475 1474 1473 1471 1470 1469 1467 1466 1465 1464 1462 1460 1458 1456 1454 1452
1493 1493 1494 1494 1494 1494 1494 1494 1494 1494 1494 1493 1492 1491 1491 1489 1488 1487 1485 1484 1483 1482 1480 1479 1478 1477 1475 1474 1472 1471 1469 1468 1466 1465 1464 1463 1462 1460 1458 1456 1454 1452 1450
1493 1493 1493 1493 1494 1494 1494 1494 1495 1495 1494 1494 1493 1492 1492 1491 1489 1488 1486 1485 1484 1482 1481 1479 1478 1476 1475 1473 1471 1469 1468 1466 1465 1463 1462 1461 1459 1457 1456 1454 1452 1450 1448
1492 1492 1492 1492 1493 1494 1494 1494 1495 1495 1494 1494 1493 1493 1492 1491 1490 1489 1487 1486 1484 1483 1482 1480 1478 1477 1475 1473 1472 1470 1468 1466 1464 1463 1461 1459 1457 1455 1454 1452 1450 1448 1446